Starlink 31928

operational
NORAD ID: 59897 Int'l Des: 2024-100 Owner: SPXS Country: US Constellation: starlink
LEOCIRCULAR

About Starlink 31928

Description loading...

Live Position

Loading 3D Globe...

Upcoming Passes

Altitude History

Altitude vs Time

uPlot chart will show altitude changes over time

Two-Line Element Set

1 59897U 24100N 25258.84685126 .00001030 00000-0 46940-4 0 9998
2 59897 43.0000 33.0995 0000505 222.6147 137.4665 15.27582120 74310
Epoch: Sep 15, 2025 • Age: 53 hours

Current Status

Altitude 484.4 km
Velocity 7.62 km/s
Sub-Earth Point -10.27°S, 159.75°W
Launch Date May 28, 2024
Age 1.3 years
Type internet

Technical Details

Classification Payload
Mass 730.00 kg
Dry Mass 700.00 kg
Total Mass 730.00 kg
Length 0.30 m
Diameter 4.10 m
Span 29.00 m
Shape Box + pan
Manufacturer SPXS
Bus Type Starlink V2M
Phase Status In Orbit
Owner/State SPXS/US

Large Constellations

Loading constellations...